Simultaneous Nadir Overpasses (SNOs) Predictions

Prediction of SNOs between AQUA and NOAA-19 Satellite Orbit:

Table of predicted SNOs for the next 14.0 days since TLE Epoch: 11/7/2020
Index Date (AQUA) Time (AQUA) Lat,Lon (AQUA) SZA (AQUA ) Date (NOAA-19) Time (NOAA-19) Lat,Lon (NOAA-19) SZA (NOAA-19 ) Distance(km) Time Diff (sec)
1 11/08/2020 07:24:30 -79.40,-137.25 83.19 11/08/2020 07:23:17 -79.38,-137.16 83.19 2.42 73
2 11/08/2020 08:13:57 79.40, 30.37 96.83 11/08/2020 08:14:11 79.41, 30.39 96.84 1.66 14
3 11/10/2020 13:47:40 -79.39, 127.01 82.56 11/10/2020 13:47:31 -79.41, 127.10 82.55 2.87 9
4 11/10/2020 14:37:12 79.58, -66.67 97.72 11/10/2020 14:38:18 79.63, -63.43 97.54 65.25 66
5 11/12/2020 19:21:24 79.39,-136.42 98.05 11/12/2020 19:20:41 79.37,-136.46 98.05 2.02 43
6 11/12/2020 20:10:51 -79.42, 30.99 81.90 11/12/2020 20:11:46 -79.40, 31.05 81.94 2.66 55
7 11/15/2020 00:55:06 -79.35, -39.58 81.43 11/15/2020 00:54:01 -79.37, -39.65 81.38 3.44 65
8 11/15/2020 01:44:34 79.39, 127.79 98.64 11/15/2020 01:44:55 79.38, 127.71 98.64 1.58 21
9 11/17/2020 07:18:17 -79.39,-135.66 80.80 11/17/2020 07:18:16 -79.36,-135.73 80.82 3.31 1
10 11/19/2020 12:52:00 79.36, -38.92 99.70 11/19/2020 12:51:24 79.37, -38.87 99.71 1.30 36
